Погода в Твери

Погода в Твери : погода сейчас, прогноз погоды и архив. Всё, что Вы хотите узнать о погоде в Твери!

Хотите узнать прогноз погоды в Твери? Тогда Вам сюда: Погода в Твери

Поиск расширенной информации на нашем сайте:

Полезная информация:

Другие новости

Новости СМИ2

Главная страница сайта

Новости сайта

03.07.2017

Напоминаем, что на нашем специализированном сайте Метеоцентр.Азия вы можете получить высокодетализированные автоматические прогнозы погоды по пунктам России, СНГ и мира в авиационном формате (включающие направление и скорость ветра, видимость, явления погоды, количество и форму облачности, нижнюю и верхнюю границу облачности).

Рекомендуем:

Погода в Твери - сегодня

Время (UTC), дата Ветер
(°,м/с) 
Видим.   Явления Облачность Т
(°С)
Тd
(°С)
f(%) Тe
(°С)
Pmin
(гПа)
dP
(гПа)
Po
(мм)
O2
(г/м3)
Тmin Tmax R s Состояние
почвы
09 15.09.19 220 (ЮЗ) 10 км    9/9 600 м 
[Sc]
+9.9 +4.8 71 +10  1014.5  -1  748  290           
12 15.09.19 220 (ЮЗ) 10 км    9/9 1000 м 
[Sc]
+11.6 +3.8 59 +11  1011.9  -2.5  746  288           
15 15.09.19 200 (Ю) 10 км  слаб. ливневой дождь  10/5 600 м кучево-дожд., средняя 
[Cb cap|Ac trans]
+10.1 +5.5 73 +10  1007.5  -4.4  743  288      0.5     
18 15.09.19 220 (ЮЗ) 10 км  слаб. ливневой дождь  10/10 600 м кучево-дожд. 
[Cb cap]
+8.6 +6.9 89 +8  1003.3  -4.2  739  288    +11.8     
21 15.09.19 210 (ЮЗ) 10 км  слаб. дождь{ливн. осадки}  10/10 300 м 
[Ns]
+8.3 +6.6 89 +8  999  -4.2  736  287           
00 16.09.19 220 (ЮЗ) 10 км  {ливн. осадки, дождь}  9/9 300 м 
[Sc]
+9.9 +7.7 86 +10  996.9  -1.9  735  284           
03 16.09.19 220 (ЮЗ) 10 км    9/6 300 м средняя 
[St|Ac trans]
+10.1 +7.7 85 +10  995.8  -1.1  734  284  +8.2       
06 16.09.19 240 (ЮЗ) 4000 м  слаб. ливневой дождь  10/8 200 м кучево-дожд., средняя 
[Cb cap|Ac und]
+10.3 +7.6 83 +10  994.9  -0.8  733  283  +8.2      мокрая 
09 16.09.19 240 (ЮЗ) 10 км  {ливн. осадки}  8/6 600 м средняя 
[Sc|Ac trans]
+13.4 +7.7 68 +14  994.2  -0.6  733  280           
12 16.09.19 300 (СЗ) 4000 м  слаб. ливневой дождь  8/8 1000 м кучево-дожд., средняя 
[Cb cap|Ac trans]
+12.1 +8.5 79 +12  994.4  0.1  733  281           
15 16.09.19 230 (ЮЗ) 10 км  {ливн. осадки}  4/4 1000 м 
[Sc]
+12.4 +6.1 65 +12  994.4  0.1  733  281         
18 16.09.19 220 (ЮЗ) 10 км  {ливн. осадки}  8/8 600 м кучево-дожд. 
[Cb cap]
+10.7 +7.4 80 +11  994.2  -0.3  733  283    +13.9     
21 16.09.19 250 (З) 10 км    9/9 300 м 
[Sc]
+9.5 +6.1 79 +10  994.6  0.3  733  284           
00 17.09.19 240 (ЮЗ) 10 км    9/9 300 м 
[Sc]
+9.4 +6.6 83 +9  994  -0.6  733  284           
03 17.09.19 270 (З) 10 км    10/10 300 м 
[St]
+8.8 +6.5 85 +10  994.3  0.2  733  285  +8.8    0.9     
06 17.09.19 250 (З) 2000 м  дождь{морось}  10/10 100 м 
[Frnb|Ns]
+8.7 +7 89 +10  994.6  0.3  733  285  +8.6    0.5    мокрая 
09 17.09.19 270 (З) 4000 м  слаб. ливневой дождь  10/10 200 м кучево-дожд. 
[Cb cap]
+8 +6.3 89 +9  995.5  0.8  734  286           
12 17.09.19 260 (З) 10 км  {ливн. осадки}  8/8 600 м кучево-дожд. 
[Cb calv]
+11.9 +6.6 70 +13  995.9  0.6  734  282           
15 17.09.19 270 (З) 10 км  слаб. ливневой дождь  9/8 600 м кучево-дожд., средняя 
[Cb cap|Ac trans]
+9.7 +6.3 79 +11  996.6  0.6  734  285         
18 17.09.19 250 (З) 10 км  {ливн. осадки}  3/0 средняя 
[Ac trans]
+7.2 +5.6 90 +8  997.6  0.8  735  288    +11.9     
21 17.09.19 230 (ЮЗ) 10 км    6/0 средняя 
[Ac trans]
+6.3 +5 91 +7  997.7  0.1  735  289           
00 18.09.19 тихо ()   10 км    3/0 средняя 
[Ac trans]
+4.5 +3.4 93 +5  997.6  -0.2  735  291           
03 18.09.19 тихо ()   10 км  туман поземный  8/3 1000 м средняя 
[Sc|Ac trans]
+3.2 +2.3 94 +3  997.8  0.1  735  292  +3.1    0.0     
06 18.09.19 тихо ()   0500 м  туман  ?/?  
+5.1 +4.2 94 +5  998  0.3  735  290  +3.1        влажная 
09 18.09.19 280 (З) 10 км  {туман}  10/10 300 м 
[St]
+8.4 +6.3 87 +9  998.4  0.6  736  287           
Время (UTC), дата Ветер
(°,м/с) 
Видим.   Явления Облачность Т
(°С)
Тd
(°С)
f(%) Тe
(°С)
Pmin
(гПа)
dP
(гПа)
Po
(мм)
O2
(г/м3)
Тmin Tmax R s Состояние
почвы

Для получения пояснительной информации подведите курсор к названию столбца.

ПОГОДА в Твери - архив

Всё, что Вы хотите узнать о погоде в Твери - удобно и подробно!

Выберите нужную дату (начиная с 1 января 2018* года) и нажмите кнопку "Найти".
Будут отображены архивные сводки погоды по пункту Тверь, начиная с указанной даты.


Отображать данные в формате CSV (для использования в таблицах Excel)


Внимание! Наш архив погоды предназначен исключительно для личного некоммерческого использования в познавательных целях. Если Вам необходимы официальные справки о состоянии погоды (для производственных, юридических, коммерческих и т.п. целей), обращайтесь в органы Росгидромета.

*Примечание: данная дата относится к архиву по метеостанциям СССР (Россия, СНГ, Балтия).
Архив по метеостанциям Зарубежной Европы и Азии (кроме Китая) хранится 10 дней, по другим регионам земного шара (Китай, Африка, Америка, Австралия, Океания) - 1 день.

Тверь - район местоположения метеостанции


Название, широта, долгота, высота метеостанции:
Тверь (город) 56.8°ш. 35.7°д. 137 м над ур. моря [Российская Федерация]

Дополнительная информация

В oтличие oт бoльшинства пoгoдных сайтoв мы публикуем пoдрoбную метеoинфoрмацию в детальнoм прoфессиoнальнoм фoрмате.

Характеристики температуры и влажнoсти вoздуха измеряются на высoте 2 м в тени вдали oт зданий и деревьев.
Скoрoсть ветра измеряется на высoте 10 м (на урoвне рoста челoвека скoрoсть ветра ниже в 1.5-2 раза). Если метеoстанция нахoдится в гoрoде или в лесу, тo скoрoсть ветра занижена на 2-4 м/с пo сравнению с oткрытым местoм. Скoрoсть ветра над акватoриями крупных рек и oзёр, а также на вершинах хoлмoв на 2-5 м/с выше, чем в oбычных услoвиях.
Атмoсфернoе давление в разных тoчках местнoсти мoжет значительнo oтличаться oт давления на метеoстанции, в зависимoсти oт услoвий рельефа (при пoдъёме на 10 м давление пoнижается примернo на 1 мм рт.ст.).